Regional Weather Roundup
Issued by NWS Goodland, KS

Home | Current Version | Previous Version | Graphics & Text | Print | Product List | Glossary On
Versions: 1 2 3 4 5 6 7 8 9 10 11 12 13 14 15 16 17 18 19 20 21 22 23 24 25 26 27 28 29 30 31 32 33 34 35 36 37 38 39 40 41 42 43 44 45 46 47 48 49 50
000
ASUS43 KGLD 030508
RWRGLD

GOODLAND FORECAST AREA HOURLY WEATHER ROUNDUP
NATIONAL WEATHER SERVICE GOODLAND KS
1100 PM MDT SUN AUG 02 2015

...OFFICIAL OBSERVATIONS...

CITY           SKY/WX    TMP DP  RH WIND       PRES   REMARKS
GOODLAND KS    CLEAR     71  54  54 S12       30.01F
HILL CITY KS   PTCLDY    77  63  61 SW8       29.92F
IMPERIAL NEB   PTCLDY    75  52  44 S10       29.99R
MCCOOK NEB     PTCLDY    70  58  65 SW5       29.94S
AKRON CO       MOCLDY    68  52  56 S8        30.07S
BURLINGTON CO  PTCLDY    72  57  59 SE13      30.06R
LIMON CO       MOCLDY    66  50  56 SE5       30.13S
$$

...UNOFFICIAL OBSERVATIONS...

CITY           SKY/WX    TMP DP  RH WIND       PRES   REMARKS
COLBY KS       CLEAR     70  61  73 SW7       29.99S
NORTON KS      CLEAR     66  55  68 SW6       29.93R
SHARON SPRINGS   N/A     73  60  65 CALM        N/A
KIT CARSON CO    N/A     75  54  47 MISG        N/A
$$


USA.gov is the U.S. government's official web portal to all federal, state and local government web resources and services.